Location: Wingville
(42.9917°N, 90.4915°W)
Time: 13:48:37
(UTC+00:00)

EO-79 - Pass Details

Date: 29 June 2022
Orbit: 588 x 603 km, 98.0° (Epoch: 18 August)

Event Time Altitude Azimuth Distance (km) Brightness Sun altitude
Rises 07:04:19 0° 23° (NNE) 2,853 ? -22.4°
Reaches altitude 10° 07:06:43 10° 35° (NE) 1,948 ? -22.3°
Maximum altitude 07:10:27 30° 96° (E) 1,096 ? -22.1°
Enters shadow 07:11:19 27° 119° (ESE) 1,160 ? -22.1°
